User: anonymous   Login
Location: Newark
(40.7360°N, 74.1730°W)
Time: 03:24:25
(UTC-04:00)
Language:

ISS - Orbit

View from above orbital plane
View from above orbital plane
View from above satellite
View from above satellite

Ground track
Ground track

The orbit data is extracted from the following two-line orbital elements,

1 25544U 98067A   15145.08797538  .00007634  00000-0  11790-3 0  9994
2 25544 051.6437 199.3648 0003748 339.6942 116.8801 15.55180988944446
Epoch (UTC): 25 May 2015 02:06:41
Eccentricity: 0.0003748
inclination: 51.6437°
perigee height: 399 km
apogee height: 404 km
right ascension of ascending node: 199.3648°
argument of perigee: 339.6942°
revolutions per day: 15.55180988
mean anomaly at epoch: 116.8801°
orbit number at epoch: 94444

The dashed part of the orbit path shows where the satellite is in the earth's shadow,  

DLR